Home   Weather   Strasbourg   Past weeks

Flag for France Past Weather in Strasbourg, Alsace, France — Yesterday and Last 2 Weeks

Now
27 °F

Clear.


Feels Like: 16 °F
Forecast: 18 / 28 °F
Wind: 13 mph from Northeast

Location: Strasbourg Airport

Current Time: Jan 18, 2017 at 7:02:58 am

Latest Report: Jan 18, 2017 at 6:30 am


Visibility: 10 mi

Pressure: 30.51 "Hg

Humidity: 69%

Dew Point: 18 °F

Location of StrasbourgLocation

Past Weather in Strasbourg — Graph

°F

Strasbourg Temperature Yesterday

Maximum temperature yesterday: 32 °F (at 1:00 pm)
Minimum temperature yesterday: 23 °F (at 6:00 am)
Average temperature yesterday: 28 °F

High & Low Weather Summary for the Past Weeks

 TemperatureHumidityPressure
High46 °F (Jan 13, 12:00 am)100% (Jan 3, 6:00 am)30.72 "Hg (Jan 3, 6:00 am)
Low14 °F (Jan 7, 3:00 am)59% (Jan 6, 2:30 pm)29.36 "Hg (Jan 12, 11:30 pm)
Average32 °F85%30.21 "Hg
* Reported Jan 3 6:00 am — Jan 18 6:00 am, Strasbourg, Weather by CustomWeather, © 2017

Note: Actual official high and low records may vary slightly from our data, if they occured in-between our weather recording intervals... More about our weather records

Advertising

Strasbourg Weather History for the Previous 24 Hours

Scroll right to see more
 ConditionsComfort  
Time TempWeatherWind HumidityBarometerVisibility
6:00 am
Wed, Jan 18
27 °FClear.14 mph69%30.51 "Hg10 mi
5:30 am25 °FClear.10 mph74%30.51 "Hg10 mi
5:00 am25 °FClear.10 mph74%30.51 "Hg10 mi
4:30 am25 °FClear.10 mph74%30.51 "Hg10 mi
4:00 am25 °FClear.12 mph74%30.51 "Hg10 mi
3:30 am25 °FClear.12 mph74%30.51 "Hg10 mi
3:00 am25 °FClear.13 mph74%30.51 "Hg10 mi
2:30 am25 °FClear.13 mph74%30.51 "Hg10 mi
2:00 am25 °FClear.10 mph74%30.51 "Hg10 mi
1:30 am27 °FClear.13 mph69%30.51 "Hg10 mi
1:00 am27 °FPassing clouds.10 mph74%30.51 "HgN/A
12:30 am27 °FClear.13 mph74%30.51 "Hg10 mi
12:00 am27 °FClear.13 mph74%30.51 "Hg10 mi
11:30 pm
Tue, Jan 17
27 °FClear.12 mph74%30.51 "Hg10 mi
11:00 pm27 °FClear.12 mph74%30.51 "Hg10 mi
10:30 pm27 °FPassing clouds.13 mph74%30.51 "HgN/A
10:00 pm27 °FPassing clouds.14 mph74%30.51 "HgN/A
9:30 pm28 °FPassing clouds.13 mph69%30.51 "HgN/A
9:00 pm28 °FPassing clouds.12 mph69%30.51 "HgN/A
8:30 pm28 °FPassing clouds.16 mph69%30.51 "HgN/A
8:00 pm28 °FPassing clouds.17 mph74%30.51 "HgN/A
7:30 pm28 °FPassing clouds.20 mph74%30.48 "HgN/A
7:00 pm28 °FPassing clouds.15 mph69%30.48 "HgN/A
6:30 pm28 °FPassing clouds.15 mph69%30.48 "HgN/A
6:00 pm30 °FPassing clouds.16 mph64%30.48 "HgN/A
5:30 pm30 °FPassing clouds.14 mph64%30.48 "HgN/A
5:00 pm30 °FPartly sunny.17 mph59%30.48 "HgN/A
4:30 pm30 °FSunny.16 mph59%30.48 "Hg10 mi
4:00 pm30 °FBroken clouds.20 mph59%30.48 "HgN/A
3:30 pm32 °FBroken clouds.15 mph60%30.48 "HgN/A
3:00 pm32 °FPartly sunny.16 mph60%30.45 "HgN/A
2:30 pm32 °FScattered clouds.17 mph60%30.45 "HgN/A
2:00 pm32 °FBroken clouds.17 mph64%30.45 "HgN/A
1:30 pm32 °FPassing clouds.15 mph64%30.48 "HgN/A
1:00 pm32 °FScattered clouds.17 mph64%30.48 "HgN/A
12:30 pm30 °FPassing clouds.15 mph69%30.48 "HgN/A
12:00 pm30 °FScattered clouds.14 mph69%30.48 "HgN/A
11:30 am28 °FPartly sunny.15 mph74%30.48 "HgN/A
10:30 am27 °FMostly cloudy.13 mph86%30.51 "HgN/A
10:00 am27 °FLight snow. Mostly cloudy.12 mph86%30.48 "Hg4 mi
9:30 am27 °FLight snow. Partly sunny.14 mph80%30.48 "Hg5 mi
9:00 am27 °FBroken clouds.15 mph80%30.48 "HgN/A
8:30 am25 °FScattered clouds.15 mph80%30.48 "HgN/A
8:00 am25 °FClear.13 mph80%30.45 "Hg10 mi
7:30 am25 °FPassing clouds.13 mph80%30.45 "HgN/A
7:00 am25 °FPassing clouds.12 mph74%30.45 "HgN/A
Weather by CustomWeather, © 2017

See weather overviewHow to use our weather pages